When you browse on this site, cookies collect data to enhance your experience and personalize the content and advertising you see.
Visit our Privacy Policy to learn more. By continuing to use the site, you agree to this use of cookies and data.
  • In Latvia
  • List of Countries
  • For 7 days
  • Water Temperature
  • Satellite Maps
  • Weather Map
  • Weather Widgets
  • user-avatar
    Login

    Hourly Weather Shaki

    Today, 23 May, Thursday

    Time Temperature Precipitation Wind Pressure Humidity
    00:00 +18°C° 0 mm 3 mps 735 mmHg 46%
    01:00 +17°C° 0 mm 3 mps 734 mmHg 47%
    02:00 +17°C° 0 mm 3 mps 734 mmHg 48%
    03:00 +17°C° 0 mm 3 mps 734 mmHg 49%
    04:00 +18°C° 0 mm 3 mps 734 mmHg 47%
    05:00 +18°C° 0 mm 3 mps 734 mmHg 46%
    06:00 +19°C° 0 mm 3 mps 734 mmHg 44%
    07:00 +21°C° 0 mm 3 mps 734 mmHg 38%
    08:00 +23°C° 0 mm 4 mps 734 mmHg 31%
    09:00 +26°C° 0 mm 5 mps 734 mmHg 25%
    10:00 +27°C° 0 mm 5 mps 734 mmHg 25%
    11:00 +28°C° 0 mm 5 mps 733 mmHg 25%
    12:00 +29°C° 0 mm 5 mps 733 mmHg 26%
    13:00 +29°C° 0 mm 5 mps 733 mmHg 27%
    14:00 +29°C° 0 mm 5 mps 732 mmHg 28%
    15:00 +28°C° 0 mm 4 mps 732 mmHg 29%
    16:00 +27°C° 0.1 mm 4 mps 732 mmHg 33%
    17:00 +26°C° 0.1 mm 3 mps 732 mmHg 36%
    18:00 +25°C° 0.1 mm 3 mps 732 mmHg 39%
    19:00 +24°C° 0 mm 3 mps 732 mmHg 40%
    20:00 +23°C° 0 mm 2 mps 733 mmHg 40%
    21:00 +20°C° 0 mm 2 mps 733 mmHg 41%
    22:00 +20°C° 0 mm 2 mps 733 mmHg 42%
    23:00 +19°C° 0 mm 2 mps 733 mmHg 43%

    Tomorrow, 24 May, Friday

    Time Temperature Precipitation Wind Pressure Humidity
    00:00 +19°C° 0 mm 2 mps 733 mmHg 45%
    01:00 +19°C° 0 mm 2 mps 733 mmHg 45%
    02:00 +18°C° 0 mm 2 mps 734 mmHg 45%
    03:00 +18°C° 0 mm 2 mps 734 mmHg 45%
    04:00 +19°C° 0 mm 2 mps 734 mmHg 44%
    05:00 +20°C° 0 mm 1 mps 734 mmHg 43%
    06:00 +21°C° 0 mm 1 mps 734 mmHg 43%
    07:00 +23°C° 0 mm 2 mps 734 mmHg 40%
    08:00 +24°C° 0 mm 2 mps 734 mmHg 38%
    09:00 +26°C° 0 mm 3 mps 734 mmHg 36%
    10:00 +27°C° 0 mm 3 mps 734 mmHg 35%
    11:00 +28°C° 0 mm 3 mps 734 mmHg 33%
    12:00 +29°C° 0 mm 3 mps 734 mmHg 32%
    13:00 +29°C° 0 mm 3 mps 734 mmHg 31%
    14:00 +29°C° 0 mm 3 mps 734 mmHg 29%
    15:00 +30°C° 0 mm 3 mps 733 mmHg 28%
    16:00 +29°C° 0.1 mm 2 mps 733 mmHg 31%
    17:00 +28°C° 0.1 mm 2 mps 733 mmHg 34%
    18:00 +27°C° 0.1 mm 1 mps 733 mmHg 37%
    19:00 +25°C° 0 mm 1 mps 734 mmHg 39%
    20:00 +24°C° 0 mm 2 mps 735 mmHg 41%
    21:00 +21°C° 0 mm 2 mps 736 mmHg 43%
    22:00 +21°C° 0 mm 2 mps 736 mmHg 47%
    23:00 +20°C° 0 mm 2 mps 735 mmHg 51%

    Day after tomorrow, 25 May, Saturday

    Time Temperature Precipitation Wind Pressure Humidity
    00:00 +19°C° 0 mm 3 mps 735 mmHg 55%
    01:00 +19°C° 0 mm 2 mps 735 mmHg 55%
    02:00 +19°C° 0 mm 2 mps 735 mmHg 55%
    03:00 +19°C° 0 mm 1 mps 735 mmHg 56%
    04:00 +20°C° 0 mm 1 mps 735 mmHg 54%
    05:00 +21°C° 0 mm 1 mps 735 mmHg 52%
    06:00 +22°C° 0 mm 1 mps 735 mmHg 51%
    07:00 +24°C° 0 mm 1 mps 734 mmHg 47%
    08:00 +26°C° 0 mm 2 mps 734 mmHg 43%
    09:00 +28°C° 0 mm 2 mps 734 mmHg 39%
    10:00 +29°C° 0 mm 2 mps 734 mmHg 36%
    11:00 +30°C° 0 mm 2 mps 733 mmHg 33%
    12:00 +32°C° 0 mm 2 mps 733 mmHg 30%
    13:00 +32°C° 0 mm 2 mps 732 mmHg 28%
    14:00 +34°C° 0 mm 2 mps 732 mmHg 26%
    15:00 +35°C° 0 mm 2 mps 731 mmHg 25%
    16:00 +32°C° 0.2 mm 2 mps 731 mmHg 29%
    17:00 +31°C° 0.2 mm 2 mps 731 mmHg 34%
    18:00 +30°C° 0.2 mm 2 mps 731 mmHg 39%
    19:00 +28°C° 0.1 mm 2 mps 731 mmHg 41%
    20:00 +27°C° 0.1 mm 2 mps 731 mmHg 43%
    21:00 +25°C° 0.1 mm 2 mps 731 mmHg 45%
    22:00 +25°C° 0.1 mm 2 mps 731 mmHg 43%
    23:00 +24°C° 0.1 mm 2 mps 732 mmHg 41%

    26 May, Sunday

    Time Temperature Precipitation Wind Pressure Humidity
    00:00 +24°C° 0.1 mm 2 mps 732 mmHg 40%
    01:00 +24°C° 0 mm 2 mps 732 mmHg 39%
    02:00 +22°C° 0 mm 3 mps 732 mmHg 38%
    03:00 +22°C° 0 mm 3 mps 732 mmHg 37%
    04:00 +24°C° 0 mm 3 mps 732 mmHg 38%
    05:00 +25°C° 0 mm 3 mps 732 mmHg 39%
    06:00 +25°C° 0 mm 3 mps 733 mmHg 40%
    07:00 +27°C° 0.1 mm 3 mps 733 mmHg 36%
    08:00 +29°C° 0.1 mm 3 mps 733 mmHg 32%
    09:00 +32°C° 0.1 mm 4 mps 733 mmHg 28%
    10:00 +33°C° 0.1 mm 3 mps 733 mmHg 27%
    11:00 +33°C° 0.1 mm 3 mps 733 mmHg 26%
    12:00 +34°C° 0.1 mm 3 mps 732 mmHg 26%
    13:00 +34°C° 0.1 mm 3 mps 732 mmHg 26%
    14:00 +34°C° 0.1 mm 3 mps 732 mmHg 27%
    15:00 +34°C° 0.1 mm 2 mps 732 mmHg 27%
    16:00 +31°C° 0.4 mm 2 mps 732 mmHg 34%
    17:00 +30°C° 0.4 mm 2 mps 733 mmHg 41%
    18:00 +28°C° 0.4 mm 1 mps 733 mmHg 48%
    19:00 +27°C° 0.2 mm 2 mps 733 mmHg 48%
    20:00 +25°C° 0.2 mm 2 mps 734 mmHg 49%
    21:00 +24°C° 0.2 mm 2 mps 734 mmHg 50%
    22:00 +23°C° 0 mm 2 mps 735 mmHg 45%
    23:00 +23°C° 0 mm 2 mps 735 mmHg 40%

    27 May, Monday

    Time Temperature Precipitation Wind Pressure Humidity
    00:00 +21°C° 0 mm 2 mps 735 mmHg 35%
    01:00 +21°C° 0 mm 3 mps 735 mmHg 34%
    02:00 +21°C° 0 mm 3 mps 735 mmHg 33%
    03:00 +20°C° 0 mm 3 mps 735 mmHg 31%
    04:00 +21°C° 0 mm 3 mps 735 mmHg 33%
    05:00 +23°C° 0 mm 2 mps 736 mmHg 35%
    06:00 +23°C° 0 mm 2 mps 736 mmHg 37%
    07:00 +25°C° 0 mm 3 mps 737 mmHg 33%
    08:00 +27°C° 0 mm 3 mps 737 mmHg 29%
    09:00 +29°C° 0 mm 3 mps 737 mmHg 24%
    10:00 +29°C° 0 mm 3 mps 737 mmHg 23%
    11:00 +30°C° 0 mm 3 mps 737 mmHg 22%
    12:00 +31°C° 0 mm 2 mps 737 mmHg 21%
    13:00 +31°C° 0 mm 2 mps 737 mmHg 21%
    14:00 +31°C° 0 mm 2 mps 737 mmHg 22%
    15:00 +31°C° 0 mm 2 mps 737 mmHg 22%
    16:00 +30°C° 0 mm 2 mps 737 mmHg 25%
    17:00 +29°C° 0 mm 2 mps 737 mmHg 28%
    18:00 +29°C° 0 mm 2 mps 737 mmHg 31%
    19:00 +27°C° 0 mm 2 mps 738 mmHg 30%
    20:00 +25°C° 0 mm 2 mps 738 mmHg 29%
    21:00 +22°C° 0 mm 3 mps 739 mmHg 28%
    22:00 +22°C° 0 mm 3 mps 739 mmHg 34%
    23:00 +21°C° 0 mm 3 mps 739 mmHg 41%

    28 May, Tuesday

    Time Temperature Precipitation Wind Pressure Humidity
    00:00 +21°C° 0 mm 3 mps 739 mmHg 47%
    01:00 +20°C° 0 mm 2 mps 739 mmHg 47%
    02:00 +20°C° 0 mm 2 mps 739 mmHg 47%
    03:00 +20°C° 0 mm 2 mps 739 mmHg 47%
    04:00 +22°C° 0 mm 1 mps 740 mmHg 46%
    05:00 +23°C° 0 mm 1 mps 740 mmHg 45%
    06:00 +24°C° 0 mm 1 mps 740 mmHg 43%
    07:00 +25°C° 0 mm 1 mps 740 mmHg 43%
    08:00 +27°C° 0 mm 2 mps 740 mmHg 43%
    09:00 +28°C° 0 mm 2 mps 740 mmHg 42%
    10:00 +29°C° 0 mm 2 mps 740 mmHg 41%
    11:00 +30°C° 0 mm 3 mps 740 mmHg 40%
    12:00 +30°C° 0 mm 3 mps 739 mmHg 39%
    13:00 +31°C° 0 mm 3 mps 739 mmHg 39%
    14:00 +31°C° 0 mm 3 mps 739 mmHg 38%
    15:00 +31°C° 0 mm 3 mps 738 mmHg 38%
    16:00 +31°C° 0 mm 3 mps 738 mmHg 40%
    17:00 +30°C° 0 mm 3 mps 738 mmHg 42%
    18:00 +29°C° 0 mm 3 mps 738 mmHg 44%
    19:00 +28°C° 0 mm 3 mps 739 mmHg 48%
    20:00 +26°C° 0 mm 2 mps 739 mmHg 51%
    21:00 +24°C° 0 mm 2 mps 739 mmHg 54%
    22:00 +24°C° 0 mm 2 mps 739 mmHg 55%
    23:00 +23°C° 0 mm 2 mps 739 mmHg 56%
    Show more